contact:dominique.lefevre@mio.osupytheas.fr, maurice.libes@osupytheas.fr, didier.mallarino@osupytheas.fr
Project:EMSO http://www.emso-fr.org/EMSO-France
Depth: 2436.0 m
Title:EMSO Ligure Ouest : Data MII capteur AQUADOPP
Date,Latitude,Longitude,X_East,Y_North,Z_Up,Amplitude_X,Amplitude_Y,Amplitude_Z,Batterie,SoundSpeed,Heading,Pitch,Roll,Pressure,TIS,Speed,Direction
, degrees North, degrees East, m.s-1, m.s-1,m.s-1, 1, 1, 1, Volt, m.s-1, degree, degree, degree, dbar, degree_C, m.s-1, degree
2023-12-30T00:04:03,42.805,6.029,0.001,-0.013,-0.014,104.0,103.0,102.0,13.3,1505.2,343.7,-0.8,1.8,2471.541,13.29,0.013,175.6
2023-12-30T00:07:03,42.805,6.029,0.017,-0.01,-0.025,102.0,104.0,102.0,13.4,1505.2,348.9,-0.8,1.8,2471.556,13.29,0.019,120.5
2023-12-30T00:10:03,42.805,6.029,0.012,-0.004,-0.024,105.0,104.0,101.0,13.4,1505.2,347.8,-0.8,1.8,2471.579,13.29,0.012,108.4
2023-12-30T00:13:03,42.805,6.029,0.016,0.017,-0.005,104.0,103.0,102.0,13.4,1505.2,341.8,-0.8,1.8,2471.568,13.29,0.023,43.3
2023-12-30T00:16:03,42.805,6.029,0.016,-0.026,-0.013,105.0,105.0,102.0,13.4,1505.2,356.9,-0.8,1.8,2471.551,13.29,0.03,148.4
2023-12-30T00:19:03,42.805,6.029,0.026,0.002,-0.004,104.0,103.0,102.0,13.3,1505.2,0.0,-0.8,1.8,2471.532,13.29,0.026,85.6
2023-12-30T00:22:03,42.805,6.029,0.007,0.002,-0.024,104.0,103.0,101.0,13.4,1505.2,341.3,-0.8,1.8,2471.51,13.29,0.007,74.1
2023-12-30T00:25:03,42.805,6.029,-0.006,-0.008,-0.036,104.0,102.0,103.0,13.4,1505.2,359.1,-0.8,1.8,2471.489,13.29,0.01,216.9
2023-12-30T00:28:03,42.805,6.029,0.001,-0.009,-0.008,102.0,103.0,102.0,13.3,1505.2,349.9,-0.8,1.8,2471.517,13.29,0.009,173.7
2023-12-30T00:31:03,42.805,6.029,0.016,-0.011,-0.04,107.0,104.0,101.0,13.3,1505.2,355.6,-0.8,1.8,2471.53,13.29,0.019,124.5
2023-12-30T00:34:03,42.805,6.029,0.031,-0.011,-0.007,104.0,105.0,101.0,13.3,1505.2,350.9,-0.7,1.9,2471.507,13.29,0.032,109.5
2023-12-30T00:37:03,42.805,6.029,-0.002,-0.005,-0.03,103.0,102.0,101.0,13.4,1505.2,351.7,-0.8,1.8,2471.509,13.29,0.005,201.8
2023-12-30T00:40:03,42.805,6.029,0.0,-0.015,-0.003,103.0,103.0,103.0,13.4,1505.2,357.5,-0.8,1.8,2471.518,13.29,0.015,180.0
2023-12-30T00:43:03,42.805,6.029,0.022,-0.012,-0.014,104.0,105.0,102.0,13.4,1505.2,349.9,-0.8,1.8,2471.505,13.29,0.025,118.6
2023-12-30T00:46:03,42.805,6.029,0.0,0.001,-0.008,103.0,104.0,102.0,13.4,1505.2,354.1,-0.7,1.8,2471.526,13.29,0.001,0.0
2023-12-30T00:49:03,42.805,6.029,0.022,0.007,-0.013,104.0,103.0,101.0,13.3,1505.2,348.3,-0.8,1.8,2471.501,13.29,0.023,72.4
2023-12-30T00:52:03,42.805,6.029,-0.001,0.005,-0.035,102.0,104.0,102.0,13.4,1505.2,3.1,-0.8,1.8,2471.533,13.29,0.005,348.7
2023-12-30T00:55:03,42.805,6.029,-0.003,-0.012,-0.037,105.0,103.0,102.0,13.4,1505.2,340.1,-0.7,1.8,2471.539,13.29,0.012,194.0
2023-12-30T00:58:03,42.805,6.029,0.018,-0.017,-0.023,104.0,103.0,102.0,13.4,1505.2,352.6,-0.8,1.8,2471.508,13.29,0.024,133.4
2023-12-30T01:04:03,42.805,6.029,-0.003,0.0,-0.024,104.0,106.0,103.0,13.4,1505.2,350.1,-0.8,1.8,2471.529,13.29,0.003,270.0
2023-12-30T01:07:03,42.805,6.029,0.0,-0.011,-0.024,103.0,103.0,102.0,13.3,1505.2,353.9,-0.8,1.8,2471.547,13.29,0.011,180.0
2023-12-30T01:10:03,42.805,6.029,0.01,0.006,-0.02,103.0,104.0,102.0,13.4,1505.2,349.1,-0.8,1.8,2471.572,13.29,0.011,59.0
2023-12-30T01:13:02,42.805,6.029,0.008,0.0,-0.018,104.0,104.0,102.0,13.3,1505.2,347.4,-0.8,1.8,2471.517,13.29,0.008,90.0
2023-12-30T01:16:02,42.805,6.029,0.019,-0.006,-0.047,104.0,104.0,101.0,13.3,1505.2,349.4,-0.8,1.8,2471.488,13.29,0.019,107.5
2023-12-30T01:19:03,42.805,6.029,0.002,0.013,-0.026,102.0,105.0,103.0,13.4,1505.2,347.7,-0.8,1.8,2471.525,13.29,0.013,8.7
2023-12-30T01:22:02,42.805,6.029,0.023,-0.009,-0.013,102.0,102.0,102.0,13.4,1505.2,346.6,-0.8,1.8,2471.485,13.29,0.024,111.4
2023-12-30T01:25:03,42.805,6.029,0.015,-0.008,-0.029,106.0,104.0,101.0,13.4,1505.2,353.2,-0.8,1.8,2471.505,13.29,0.017,118.1
2023-12-30T01:28:03,42.805,6.029,0.007,-0.012,-0.013,105.0,105.0,101.0,13.4,1505.2,354.0,-0.8,1.8,2471.499,13.29,0.013,149.7
2023-12-30T01:31:03,42.805,6.029,-0.001,0.007,-0.03,103.0,105.0,102.0,13.4,1505.2,356.6,-0.8,1.8,2471.546,13.29,0.007,351.9
2023-12-30T01:34:03,42.805,6.029,-0.006,-0.032,-0.082,103.0,105.0,101.0,13.4,1505.2,355.5,-0.8,1.8,2471.53,13.29,0.032,190.6
2023-12-30T01:37:03,42.805,6.029,0.024,-0.021,-0.029,101.0,104.0,102.0,13.3,1505.2,358.5,-0.7,1.8,2471.482,13.29,0.031,131.2
2023-12-30T01:40:03,42.805,6.029,0.0,-0.011,-0.033,103.0,105.0,102.0,13.3,1505.2,355.9,-0.8,1.8,2471.477,13.29,0.011,180.0
2023-12-30T01:43:03,42.805,6.029,0.024,-0.006,-0.001,104.0,104.0,102.0,13.4,1505.2,348.5,-0.8,1.8,2471.502,13.29,0.024,104.0
2023-12-30T01:46:03,42.805,6.029,0.018,-0.014,-0.035,103.0,103.0,102.0,13.4,1505.2,0.0,-0.8,1.8,2471.489,13.29,0.022,127.9
2023-12-30T01:49:03,42.805,6.029,0.011,-0.003,-0.004,102.0,104.0,102.0,13.3,1505.2,355.8,-0.8,1.8,2471.463,13.29,0.011,105.3
2023-12-30T01:52:03,42.805,6.029,0.02,-0.005,-0.004,104.0,104.0,103.0,13.4,1505.2,347.3,-0.8,1.8,2471.474,13.29,0.02,104.0
2023-12-30T01:55:03,42.805,6.029,0.005,-0.019,-0.05,104.0,103.0,102.0,13.4,1505.2,1.5,-0.8,1.8,2471.462,13.29,0.019,165.3
2023-12-30T01:58:03,42.805,6.029,0.003,-0.005,-0.055,105.0,104.0,101.0,13.3,1505.2,345.2,-0.8,1.8,2471.481,13.29,0.005,149.0
2023-12-30T02:04:03,42.805,6.029,-0.008,-0.006,-0.036,104.0,104.0,102.0,13.4,1505.2,357.6,-0.8,1.8,2471.542,13.29,0.01,233.1
2023-12-30T02:07:03,42.805,6.029,-0.006,-0.029,-0.044,103.0,103.0,103.0,13.3,1505.2,348.6,-0.8,1.8,2471.499,13.29,0.029,191.7
2023-12-30T02:10:03,42.805,6.029,-0.013,0.004,-0.029,104.0,103.0,102.0,13.4,1505.2,346.1,-0.8,1.8,2471.503,13.29,0.013,287.1
2023-12-30T02:13:03,42.805,6.029,0.027,-0.006,0.009,105.0,103.0,101.0,13.3,1505.2,346.3,-0.8,1.8,2471.503,13.29,0.027,102.5
2023-12-30T02:16:03,42.805,6.029,0.013,-0.004,-0.007,104.0,104.0,102.0,13.4,1505.2,358.4,-0.7,1.8,2471.484,13.29,0.013,107.1
2023-12-30T02:19:03,42.805,6.029,-0.002,-0.003,-0.046,104.0,103.0,102.0,13.3,1505.2,356.6,-0.7,1.8,2471.505,13.29,0.003,213.7
2023-12-30T02:22:03,42.805,6.029,0.019,-0.014,-0.033,104.0,104.0,102.0,13.4,1505.2,349.2,-0.8,1.8,2471.518,13.29,0.023,126.4
2023-12-30T02:25:03,42.805,6.029,0.017,-0.008,0.006,103.0,102.0,102.0,13.3,1505.2,347.9,-0.7,1.8,2471.475,13.29,0.018,115.2
2023-12-30T02:28:03,42.805,6.029,0.016,0.012,-0.014,104.0,104.0,101.0,13.4,1505.2,343.3,-0.8,1.8,2471.489,13.29,0.02,53.1
2023-12-30T02:31:03,42.805,6.029,0.02,0.009,-0.005,103.0,103.0,102.0,13.3,1505.2,350.2,-0.8,1.8,2471.451,13.29,0.021,65.8
2023-12-30T02:34:03,42.805,6.029,0.014,-0.003,0.009,103.0,102.0,102.0,13.4,1505.2,346.1,-0.8,1.8,2471.46,13.29,0.014,102.1
2023-12-30T02:37:03,42.805,6.029,0.036,0.005,-0.013,104.0,103.0,101.0,13.4,1505.2,1.4,-0.7,1.8,2471.486,13.29,0.036,82.1
2023-12-30T02:40:03,42.805,6.029,0.007,0.009,-0.006,102.0,104.0,102.0,13.4,1505.2,341.7,-0.8,1.8,2471.469,13.29,0.011,37.9
2023-12-30T02:43:03,42.805,6.029,0.002,0.003,-0.031,104.0,104.0,101.0,13.4,1505.2,355.9,-0.7,1.8,2471.469,13.29,0.003,33.7
2023-12-30T02:46:03,42.805,6.029,0.007,-0.028,-0.012,103.0,104.0,101.0,13.4,1505.2,3.1,-0.8,1.8,2471.481,13.29,0.028,166.0
2023-12-30T02:49:03,42.805,6.029,0.006,-0.012,0.0,104.0,103.0,101.0,13.4,1505.2,346.3,-0.8,1.8,2471.444,13.29,0.013,153.4
2023-12-30T02:52:03,42.805,6.029,-0.019,-0.004,-0.043,103.0,104.0,101.0,13.4,1505.2,350.9,-0.7,1.8,2471.498,13.29,0.019,258.1
2023-12-30T02:55:03,42.805,6.029,0.028,-0.005,-0.006,104.0,102.0,102.0,13.3,1505.2,348.1,-0.7,1.8,2471.491,13.29,0.028,100.1
2023-12-30T02:58:03,42.805,6.029,0.028,-0.004,-0.037,106.0,103.0,101.0,13.3,1505.2,352.3,-0.8,1.8,2471.473,13.29,0.028,98.1
2023-12-30T03:04:03,42.805,6.029,0.003,-0.017,-0.012,103.0,104.0,102.0,13.4,1505.2,350.9,-0.8,1.8,2471.479,13.29,0.017,170.0
2023-12-30T03:07:03,42.805,6.029,0.002,-0.016,-0.02,103.0,104.0,101.0,13.4,1505.2,0.8,-0.8,1.8,2471.525,13.29,0.016,172.9
2023-12-30T03:10:03,42.805,6.029,0.0,0.001,0.001,103.0,103.0,101.0,13.3,1505.2,355.7,-0.8,1.8,2471.52,13.29,0.001,0.0
2023-12-30T03:13:03,42.805,6.029,0.028,0.01,-0.001,103.0,105.0,103.0,13.4,1505.2,357.5,-0.8,1.8,2471.491,13.29,0.029,70.4
2023-12-30T03:16:03,42.805,6.029,-0.007,-0.009,-0.022,104.0,106.0,101.0,13.4,1505.2,348.6,-0.7,1.8,2471.424,13.29,0.011,217.9
2023-12-30T03:19:03,42.805,6.029,0.024,-0.023,0.013,104.0,105.0,102.0,13.4,1505.2,1.6,-0.8,1.8,2471.5,13.29,0.033,133.8
2023-12-30T03:22:03,42.805,6.029,0.005,-0.011,-0.008,102.0,105.0,103.0,13.3,1505.2,339.9,-0.7,1.8,2471.491,13.29,0.012,155.6
2023-12-30T03:25:03,42.805,6.029,-0.011,0.0,-0.013,103.0,105.0,102.0,13.4,1505.2,355.9,-0.7,1.8,2471.463,13.29,0.011,270.0
2023-12-30T03:28:03,42.805,6.029,-0.007,-0.001,-0.024,104.0,105.0,101.0,13.3,1505.2,348.3,-0.8,1.8,2471.48,13.29,0.007,261.9
2023-12-30T03:31:03,42.805,6.029,0.002,0.0,-0.039,104.0,103.0,102.0,13.4,1505.2,349.1,-0.8,1.8,2471.468,13.29,0.002,90.0
2023-12-30T03:34:03,42.805,6.029,0.004,-0.005,-0.023,103.0,103.0,103.0,13.3,1505.2,350.2,-0.7,1.8,2471.431,13.29,0.006,141.3
2023-12-30T03:37:03,42.805,6.029,0.008,-0.006,-0.034,104.0,103.0,102.0,13.4,1505.2,353.9,-0.8,1.9,2471.482,13.29,0.01,126.9
2023-12-30T03:40:03,42.805,6.029,0.03,-0.001,-0.032,103.0,104.0,102.0,13.4,1505.2,347.9,-0.7,1.8,2471.478,13.29,0.03,91.9
2023-12-30T03:43:03,42.805,6.029,0.01,-0.014,-0.025,103.0,105.0,101.0,13.4,1505.2,1.4,-0.8,1.8,2471.49,13.29,0.017,144.5
2023-12-30T03:46:03,42.805,6.029,0.005,-0.021,-0.038,103.0,105.0,101.0,13.3,1505.2,356.7,-0.7,1.9,2471.453,13.29,0.021,166.6
2023-12-30T03:49:03,42.805,6.029,0.003,-0.018,-0.032,104.0,103.0,102.0,13.4,1505.2,0.7,-0.7,1.8,2471.457,13.29,0.018,170.5
2023-12-30T03:52:03,42.805,6.029,0.007,-0.013,-0.004,104.0,105.0,102.0,13.4,1505.2,345.1,-0.7,1.8,2471.508,13.29,0.014,151.7
2023-12-30T03:55:03,42.805,6.029,0.014,-0.009,0.003,106.0,102.0,102.0,13.4,1505.2,346.3,-0.8,1.8,2471.45,13.29,0.016,122.7
2023-12-30T03:58:03,42.805,6.029,0.033,-0.015,-0.02,104.0,104.0,102.0,13.4,1505.2,3.0,-0.8,1.8,2471.493,13.29,0.036,114.4
2023-12-30T05:04:02,42.805,6.029,0.015,0.002,0.035,105.0,105.0,105.0,13.4,1505.2,358.4,-0.8,1.8,2472.025,13.28,0.015,82.4
2023-12-30T05:07:03,42.805,6.029,0.022,0.002,0.014,105.0,106.0,103.0,13.3,1505.2,347.7,-0.8,1.8,2471.946,13.28,0.022,84.8
2023-12-30T05:10:03,42.805,6.029,0.008,-0.02,-0.024,105.0,106.0,103.0,13.4,1505.2,1.6,-0.8,1.8,2471.873,13.28,0.021,158.2
2023-12-30T05:13:02,42.805,6.029,0.028,-0.019,0.004,104.0,105.0,101.0,13.3,1505.2,343.6,-0.8,1.8,2471.797,13.28,0.033,124.2
2023-12-30T05:16:03,42.805,6.029,0.001,0.003,-0.023,106.0,103.0,102.0,13.4,1505.2,3.0,-0.8,1.8,2471.696,13.29,0.003,18.4
2023-12-30T05:19:03,42.805,6.029,0.015,-0.014,-0.007,105.0,105.0,103.0,13.4,1505.2,356.6,-0.8,1.8,2471.695,13.29,0.02,133.0
2023-12-30T05:22:03,42.805,6.029,0.015,0.006,-0.019,104.0,104.0,102.0,13.4,1505.2,348.1,-0.8,1.8,2471.666,13.29,0.016,68.2
2023-12-30T05:25:03,42.805,6.029,0.011,-0.012,-0.015,105.0,104.0,103.0,13.4,1505.2,356.6,-0.8,1.8,2471.621,13.29,0.016,137.5
2023-12-30T05:28:03,42.805,6.029,0.014,0.006,-0.038,104.0,105.0,102.0,13.4,1505.2,3.8,-0.8,1.8,2471.611,13.29,0.015,66.8
2023-12-30T05:31:03,42.805,6.029,0.031,-0.024,-0.034,104.0,104.0,102.0,13.3,1505.2,343.9,-0.7,1.8,2471.554,13.29,0.039,127.7
2023-12-30T05:34:03,42.805,6.029,0.008,-0.009,-0.007,104.0,105.0,102.0,13.4,1505.2,351.1,-0.8,1.8,2471.548,13.29,0.012,138.4
2023-12-30T05:37:03,42.805,6.029,0.018,-0.035,-0.054,104.0,104.0,103.0,13.4,1505.2,354.1,-0.7,1.8,2471.537,13.29,0.039,152.8
2023-12-30T05:40:03,42.805,6.029,0.011,0.001,-0.019,104.0,104.0,102.0,13.4,1505.2,356.4,-0.7,1.8,2471.562,13.29,0.011,84.8
2023-12-30T05:43:03,42.805,6.029,0.004,-0.012,-0.02,103.0,104.0,102.0,13.3,1505.2,349.3,-0.8,1.8,2471.53,13.29,0.012,161.6
2023-12-30T05:46:03,42.805,6.029,0.011,-0.016,-0.051,103.0,104.0,102.0,13.3,1505.2,349.3,-0.8,1.8,2471.545,13.29,0.019,145.5
2023-12-30T05:49:03,42.805,6.029,-0.002,-0.002,-0.004,104.0,103.0,102.0,13.3,1505.2,347.8,-0.8,1.8,2471.574,13.29,0.002,225.0
2023-12-30T05:52:03,42.805,6.029,-0.004,0.0,-0.05,102.0,104.0,102.0,13.4,1505.2,353.2,-0.8,1.8,2471.583,13.29,0.004,270.0
2023-12-30T05:55:03,42.805,6.029,0.004,-0.008,-0.036,103.0,103.0,102.0,13.3,1505.2,349.3,-0.7,1.8,2471.564,13.29,0.008,153.4
2023-12-30T05:58:03,42.805,6.029,0.01,-0.003,0.003,104.0,103.0,102.0,13.3,1505.2,3.1,-0.7,1.8,2471.516,13.29,0.01,106.7
2023-12-30T06:04:03,42.805,6.029,0.005,-0.007,-0.012,104.0,103.0,103.0,13.4,1505.2,357.6,-0.8,1.8,2471.634,13.29,0.008,144.5
2023-12-30T06:07:03,42.805,6.029,0.015,-0.019,-0.006,103.0,104.0,102.0,13.4,1505.2,348.5,-0.8,1.8,2471.612,13.29,0.024,141.7
2023-12-30T06:10:03,42.805,6.029,0.002,-0.014,-0.009,105.0,104.0,102.0,13.3,1505.2,0.8,-0.8,1.8,2471.582,13.29,0.014,171.9
2023-12-30T06:13:03,42.805,6.029,0.015,-0.012,-0.023,104.0,105.0,102.0,13.4,1505.2,354.0,-0.8,1.8,2471.591,13.29,0.019,128.7
2023-12-30T06:16:03,42.805,6.029,0.002,-0.011,-0.014,104.0,104.0,102.0,13.4,1505.2,344.4,-0.8,1.8,2471.603,13.29,0.011,169.7
2023-12-30T06:19:03,42.805,6.029,0.005,-0.009,-0.011,105.0,105.0,102.0,13.3,1505.2,348.1,-0.7,1.8,2471.624,13.29,0.01,150.9
2023-12-30T06:22:03,42.805,6.029,0.037,-0.02,-0.004,103.0,105.0,101.0,13.4,1505.2,2.4,-0.7,1.8,2471.584,13.29,0.042,118.4
2023-12-30T06:25:03,42.805,6.029,0.011,0.004,-0.037,104.0,104.0,102.0,13.3,1505.2,349.2,-0.7,1.8,2471.591,13.29,0.011,70.0
2023-12-30T06:28:03,42.805,6.029,0.03,-0.019,-0.016,105.0,105.0,102.0,13.4,1505.2,357.4,-0.8,1.8,2471.589,13.29,0.035,122.3
2023-12-30T06:31:03,42.805,6.029,0.036,-0.022,-0.01,104.0,105.0,102.0,13.4,1505.2,347.0,-0.8,1.8,2471.598,13.29,0.042,121.4
2023-12-30T06:34:03,42.805,6.029,0.0,-0.009,-0.022,104.0,104.0,103.0,13.4,1505.2,347.8,-0.7,1.8,2471.578,13.29,0.009,180.0
2023-12-30T06:37:03,42.805,6.029,0.027,-0.004,-0.02,105.0,106.0,103.0,13.3,1505.2,350.9,-0.7,1.8,2471.604,13.29,0.027,98.4
2023-12-30T06:40:03,42.805,6.029,0.005,-0.014,-0.027,104.0,105.0,102.0,13.3,1505.2,4.0,-0.7,1.8,2471.613,13.29,0.014,160.4
2023-12-30T06:43:03,42.805,6.029,0.018,0.007,-0.032,104.0,104.0,103.0,13.4,1505.2,345.9,-0.8,1.8,2471.59,13.29,0.019,68.8
2023-12-30T06:46:03,42.805,6.029,-0.002,-0.029,-0.037,103.0,105.0,102.0,13.3,1505.2,355.4,-0.8,1.8,2471.611,13.29,0.029,183.9
2023-12-30T06:49:03,42.805,6.029,0.028,-0.023,-0.005,104.0,103.0,103.0,13.3,1505.2,0.0,-0.8,1.8,2471.581,13.29,0.036,129.4
2023-12-30T06:52:03,42.805,6.029,0.015,-0.018,0.009,104.0,105.0,102.0,13.3,1505.2,346.7,-0.8,1.8,2471.614,13.29,0.023,140.2
2023-12-30T06:55:03,42.805,6.029,0.004,-0.011,-0.024,103.0,105.0,102.0,13.4,1505.2,349.2,-0.7,1.8,2471.595,13.29,0.011,160.0
2023-12-30T06:58:03,42.805,6.029,0.011,-0.011,-0.019,104.0,103.0,103.0,13.4,1505.2,0.7,-0.8,1.8,2471.66,13.29,0.015,135.0
2023-12-30T07:04:03,42.805,6.029,0.011,0.0,-0.007,103.0,105.0,102.0,13.3,1505.2,351.9,-0.8,1.8,2471.669,13.29,0.011,90.0
2023-12-30T07:07:03,42.805,6.029,0.016,-0.022,-0.015,104.0,105.0,102.0,13.4,1505.2,352.7,-0.8,1.8,2471.676,13.29,0.027,144.0
2023-12-30T07:10:03,42.805,6.029,0.019,-0.017,-0.033,104.0,103.0,102.0,13.3,1505.2,348.6,-0.8,1.8,2471.637,13.29,0.025,131.8
2023-12-30T07:13:03,42.805,6.029,0.014,-0.001,0.021,105.0,103.0,102.0,13.3,1505.2,3.0,-0.8,1.8,2471.659,13.29,0.014,94.1
2023-12-30T07:16:03,42.805,6.029,0.028,-0.003,-0.022,103.0,105.0,102.0,13.4,1505.2,341.3,-0.8,1.8,2471.661,13.29,0.028,96.1
2023-12-30T07:19:03,42.805,6.029,0.024,-0.014,-0.013,104.0,104.0,102.0,13.4,1505.2,356.2,-0.8,1.8,2471.684,13.29,0.027,120.3
2023-12-30T07:22:03,42.805,6.029,0.012,-0.02,0.003,103.0,104.0,102.0,13.3,1505.2,355.7,-0.8,1.8,2471.613,13.29,0.023,149.0
2023-12-30T07:25:03,42.805,6.029,0.015,-0.014,-0.016,104.0,104.0,103.0,13.4,1505.2,343.1,-0.8,1.8,2471.639,13.29,0.02,133.0
2023-12-30T07:28:03,42.805,6.029,0.034,-0.01,-0.028,105.0,104.0,101.0,13.4,1505.2,355.2,-0.7,1.8,2471.629,13.29,0.035,106.4
2023-12-30T07:31:03,42.805,6.029,0.016,0.006,0.027,105.0,104.0,102.0,13.4,1505.2,347.8,-0.8,1.8,2471.642,13.29,0.017,69.4
2023-12-30T07:34:03,42.805,6.029,0.011,-0.023,-0.017,105.0,103.0,103.0,13.4,1505.2,348.6,-0.7,1.9,2471.642,13.29,0.025,154.4
2023-12-30T07:37:03,42.805,6.029,0.026,-0.01,-0.034,104.0,105.0,101.0,13.4,1505.2,359.2,-0.7,1.8,2471.626,13.29,0.027,111.0
2023-12-30T07:40:03,42.805,6.029,0.015,0.001,-0.026,103.0,103.0,103.0,13.4,1505.2,354.2,-0.8,1.8,2471.654,13.29,0.015,86.2
2023-12-30T07:43:03,42.805,6.029,0.044,-0.013,0.007,104.0,104.0,102.0,13.4,1505.2,359.1,-0.7,1.8,2471.69,13.29,0.045,106.5
2023-12-30T07:46:03,42.805,6.029,0.017,-0.023,-0.04,104.0,105.0,102.0,13.4,1505.2,351.3,-0.8,1.8,2471.644,13.29,0.028,143.5
2023-12-30T07:49:03,42.805,6.029,0.001,0.0,-0.028,104.0,104.0,102.0,13.3,1505.2,3.2,-0.8,1.8,2471.663,13.29,0.001,90.0
2023-12-30T07:52:03,42.805,6.029,0.014,0.007,-0.004,102.0,103.0,102.0,13.4,1505.2,341.0,-0.7,1.8,2471.682,13.29,0.015,63.4
2023-12-30T07:55:03,42.805,6.029,0.003,-0.017,-0.029,104.0,104.0,102.0,13.3,1505.2,348.1,-0.8,1.8,2471.651,13.29,0.017,170.0
2023-12-30T07:58:03,42.805,6.029,0.012,-0.008,-0.043,105.0,104.0,102.0,13.3,1505.2,347.7,-0.8,1.8,2471.678,13.29,0.014,123.7
2023-12-30T08:04:03,42.805,6.029,-0.005,-0.017,-0.016,105.0,104.0,101.0,13.3,1505.2,355.6,-0.8,1.8,2471.735,13.29,0.017,196.4
2023-12-30T08:07:03,42.805,6.029,0.001,-0.016,-0.071,104.0,104.0,102.0,13.4,1505.2,355.4,-0.8,1.8,2471.717,13.29,0.016,176.4
2023-12-30T08:10:03,42.805,6.029,0.0,0.004,-0.036,103.0,105.0,102.0,13.4,1505.2,3.8,-0.7,1.8,2471.713,13.29,0.004,0.0
2023-12-30T08:13:03,42.805,6.029,0.008,-0.022,0.005,103.0,106.0,102.0,13.3,1505.2,344.6,-0.8,1.8,2471.71,13.29,0.023,160.0
2023-12-30T08:16:02,42.805,6.029,0.009,-0.02,-0.021,106.0,106.0,102.0,13.4,1505.2,348.2,-0.8,1.8,2471.706,13.29,0.021,155.8
2023-12-30T08:19:03,42.805,6.029,0.007,-0.009,-0.032,104.0,104.0,102.0,13.3,1505.2,351.6,-0.7,1.8,2471.712,13.29,0.011,142.1
2023-12-30T08:22:03,42.805,6.029,0.011,-0.025,-0.033,104.0,106.0,102.0,13.4,1505.2,356.7,-0.7,1.8,2471.704,13.29,0.027,156.3
2023-12-30T08:25:03,42.805,6.029,0.001,-0.03,-0.028,105.0,105.0,102.0,13.4,1505.2,357.0,-0.7,1.8,2471.711,13.29,0.03,178.1
2023-12-30T08:28:03,42.805,6.029,-0.001,0.0,0.016,103.0,105.0,102.0,13.3,1505.2,356.8,-0.8,1.8,2471.724,13.29,0.001,270.0
2023-12-30T08:31:03,42.805,6.029,0.003,-0.01,-0.019,103.0,105.0,104.0,13.4,1505.2,2.4,-0.8,1.8,2471.682,13.29,0.01,163.3
2023-12-30T08:34:03,42.805,6.029,-0.011,0.0,0.003,104.0,105.0,102.0,13.4,1505.2,341.7,-0.8,1.8,2471.717,13.29,0.011,270.0
2023-12-30T08:37:03,42.805,6.029,-0.005,0.001,-0.039,103.0,104.0,102.0,13.4,1505.2,345.9,-0.8,1.8,2471.705,13.29,0.005,281.3
2023-12-30T08:40:03,42.805,6.029,-0.015,-0.005,-0.018,104.0,104.0,103.0,13.4,1505.2,348.3,-0.7,1.8,2471.696,13.29,0.015,251.6
2023-12-30T08:43:03,42.805,6.029,-0.002,-0.026,-0.02,104.0,105.0,102.0,13.3,1505.2,2.2,-0.8,1.8,2471.678,13.29,0.026,184.4
2023-12-30T08:46:03,42.805,6.029,0.001,-0.019,-0.021,104.0,104.0,102.0,13.3,1505.2,359.2,-0.8,1.8,2471.717,13.29,0.019,177.0
2023-12-30T08:49:03,42.805,6.029,0.006,-0.002,-0.003,102.0,105.0,102.0,13.4,1505.2,3.8,-0.8,1.8,2471.732,13.29,0.006,108.4
2023-12-30T08:52:03,42.805,6.029,0.013,-0.009,0.002,105.0,104.0,102.0,13.4,1505.2,352.5,-0.8,1.8,2471.717,13.29,0.015,124.7
2023-12-30T08:55:03,42.805,6.029,0.009,-0.01,-0.027,106.0,104.0,102.0,13.4,1505.2,354.9,-0.8,1.8,2471.738,13.29,0.013,138.0
2023-12-30T08:58:03,42.805,6.029,-0.01,-0.019,-0.036,104.0,104.0,102.0,13.3,1505.2,357.5,-0.8,1.8,2471.68,13.29,0.021,207.8
2023-12-30T10:04:02,42.805,6.029,-0.007,-0.028,-0.006,104.0,105.0,102.0,13.3,1505.1,359.2,-0.8,1.8,2472.265,13.27,0.028,194.0
2023-12-30T10:07:03,42.805,6.029,-0.01,-0.016,-0.012,104.0,104.0,102.0,13.4,1505.2,345.6,-0.8,1.8,2472.168,13.28,0.018,212.0
2023-12-30T10:10:03,42.805,6.029,-0.002,-0.001,-0.021,104.0,104.0,102.0,13.3,1505.2,358.4,-0.8,1.8,2472.059,13.28,0.002,243.4
2023-12-30T10:13:03,42.805,6.029,0.0,-0.002,-0.007,103.0,105.0,102.0,13.3,1505.2,353.6,-0.8,1.8,2472.027,13.28,0.002,180.0
2023-12-30T10:16:03,42.805,6.029,0.0,0.003,-0.007,103.0,104.0,102.0,13.4,1505.2,357.6,-0.8,1.8,2471.905,13.29,0.003,0.0
2023-12-30T10:19:03,42.805,6.029,0.0,-0.001,-0.043,105.0,105.0,102.0,13.3,1505.2,1.6,-0.8,1.8,2471.876,13.29,0.001,180.0
2023-12-30T10:22:03,42.805,6.029,0.012,-0.001,0.005,104.0,104.0,102.0,13.3,1505.2,345.5,-0.8,1.8,2471.809,13.29,0.012,94.8
2023-12-30T10:25:03,42.805,6.029,0.009,0.005,-0.036,105.0,104.0,103.0,13.4,1505.2,350.6,-0.8,1.8,2471.785,13.29,0.01,60.9
2023-12-30T10:28:03,42.805,6.029,0.013,0.017,-0.035,104.0,104.0,101.0,13.4,1505.2,340.6,-0.8,1.8,2471.774,13.29,0.021,37.4
2023-12-30T10:31:03,42.805,6.029,0.025,-0.006,-0.018,104.0,104.0,102.0,13.4,1505.2,347.4,-0.8,1.8,2471.746,13.29,0.025,103.5
2023-12-30T10:34:03,42.805,6.029,-0.005,-0.004,-0.012,104.0,103.0,102.0,13.3,1505.2,342.4,-0.8,1.8,2471.728,13.29,0.006,231.3
2023-12-30T10:37:03,42.805,6.029,0.016,-0.011,0.013,102.0,104.0,101.0,13.4,1505.2,354.8,-0.7,1.8,2471.717,13.29,0.019,124.5
2023-12-30T10:40:03,42.805,6.029,0.008,-0.021,0.021,104.0,105.0,101.0,13.3,1505.2,3.2,-0.8,1.8,2471.735,13.29,0.022,159.1
2023-12-30T10:43:03,42.805,6.029,0.005,-0.018,-0.001,103.0,104.0,102.0,13.3,1505.2,347.0,-0.7,1.8,2471.729,13.29,0.018,164.5
2023-12-30T10:46:03,42.805,6.029,-0.005,-0.033,-0.015,103.0,104.0,100.0,13.3,1505.2,357.6,-0.8,1.8,2471.719,13.29,0.033,188.6
2023-12-30T10:49:03,42.805,6.029,-0.004,-0.014,0.023,104.0,103.0,101.0,13.4,1505.2,3.2,-0.8,1.8,2471.671,13.29,0.014,195.9
2023-12-30T10:52:03,42.805,6.029,0.008,0.001,-0.017,104.0,104.0,102.0,13.3,1505.2,346.3,-0.8,1.8,2471.666,13.29,0.008,82.9
2023-12-30T10:55:03,42.805,6.029,0.029,-0.026,0.016,104.0,103.0,102.0,13.3,1505.2,347.4,-0.7,1.8,2471.73,13.29,0.038,131.9
2023-12-30T10:58:03,42.805,6.029,0.015,-0.011,-0.001,104.0,105.0,101.0,13.4,1505.2,349.5,-0.8,1.8,2471.681,13.29,0.018,126.3
2023-12-30T12:04:02,42.805,6.029,0.013,-0.006,-0.012,104.0,103.0,102.0,13.4,1505.1,358.3,-0.8,1.8,2472.186,13.27,0.014,114.8
2023-12-30T12:07:03,42.805,6.029,0.013,-0.02,-0.03,103.0,103.0,102.0,13.3,1505.2,1.5,-0.8,1.8,2472.114,13.28,0.023,147.0
2023-12-30T12:10:03,42.805,6.029,0.014,-0.004,-0.002,104.0,103.0,102.0,13.4,1505.2,346.6,-0.8,1.8,2471.987,13.28,0.014,105.9
2023-12-30T12:13:03,42.805,6.029,0.004,0.005,-0.018,104.0,103.0,102.0,13.4,1505.2,342.4,-0.8,1.8,2471.942,13.28,0.006,38.7
2023-12-30T12:16:03,42.805,6.029,0.006,-0.015,-0.008,103.0,104.0,102.0,13.3,1505.2,359.2,-0.8,1.8,2471.862,13.29,0.016,158.2
2023-12-30T12:19:03,42.805,6.029,-0.014,-0.025,-0.048,104.0,104.0,102.0,13.3,1505.2,0.0,-0.7,1.8,2471.79,13.29,0.028,209.3
2023-12-30T12:22:03,42.805,6.029,-0.004,0.005,-0.014,104.0,103.0,102.0,13.4,1505.2,345.1,-0.8,1.8,2471.778,13.29,0.006,321.3
2023-12-30T12:25:03,42.805,6.029,0.009,-0.009,-0.017,104.0,105.0,102.0,13.3,1505.2,349.9,-0.8,1.8,2471.725,13.29,0.012,135.0
2023-12-30T12:28:03,42.805,6.029,0.011,-0.03,-0.022,105.0,103.0,103.0,13.4,1505.2,1.5,-0.8,1.8,2471.717,13.29,0.031,159.9
2023-12-30T12:31:03,42.805,6.029,0.025,-0.042,-0.033,103.0,104.0,102.0,13.4,1505.2,0.0,-0.8,1.8,2471.698,13.29,0.048,149.2
2023-12-30T12:34:03,42.805,6.029,0.029,-0.016,-0.009,104.0,103.0,101.0,13.3,1505.2,342.8,-0.7,1.8,2471.678,13.29,0.033,118.9
2023-12-30T12:37:03,42.805,6.029,0.018,-0.028,-0.034,103.0,104.0,102.0,13.3,1505.2,346.5,-0.8,1.8,2471.617,13.29,0.033,147.3
2023-12-30T12:40:03,42.805,6.029,0.037,-0.032,-0.013,103.0,105.0,102.0,13.4,1505.2,349.0,-0.7,1.8,2471.656,13.29,0.048,130.9
2023-12-30T12:43:03,42.805,6.029,0.008,-0.015,-0.013,106.0,103.0,102.0,13.3,1505.2,4.5,-0.8,1.8,2471.629,13.29,0.017,151.9
2023-12-30T12:46:03,42.805,6.029,-0.003,-0.015,-0.035,104.0,104.0,104.0,13.4,1505.2,343.8,-0.8,1.8,2471.62,13.29,0.015,191.3
2023-12-30T12:49:03,42.805,6.029,0.022,-0.005,-0.007,104.0,104.0,103.0,13.3,1505.2,352.5,-0.8,1.8,2471.646,13.29,0.022,102.8
2023-12-30T12:52:03,42.805,6.029,-0.001,-0.001,-0.042,104.0,103.0,102.0,13.4,1505.2,354.4,-0.8,1.8,2471.629,13.29,0.001,225.0
2023-12-30T12:55:03,42.805,6.029,-0.003,-0.01,-0.039,105.0,104.0,103.0,13.3,1505.2,357.5,-0.8,1.8,2471.627,13.29,0.01,196.7
2023-12-30T12:58:03,42.805,6.029,0.005,-0.01,-0.009,104.0,105.0,103.0,13.3,1505.2,0.8,-0.8,1.8,2471.642,13.29,0.011,153.4